| time (UTC) | temp F | wind direction | speed MPH | gust MPH | rain 1hr in | rain 24hr in | rain mn in | humidity % | barometer mb |
| 20260510151525 | 56 | 165 | 0.0 | 3.0 | 0.00 | 0.35 | 0.01 | 85 | 1015.8 |
| 20260510150023 | 56 | 158 | 1.0 | 5.0 | 0.00 | 0.35 | 0.01 | 87 | 1015.8 |
| 20260510144527 | 55 | 179 | 1.0 | 5.0 | 0.00 | 0.35 | 0.01 | 89 | 1015.7 |
| 20260510143024 | 54 | 231 | 1.0 | 4.0 | 0.00 | 0.35 | 0.01 | 93 | 1015.9 |
| 20260510141514 | 52 | 113 | 1.0 | 4.0 | 0.00 | 0.35 | 0.01 | 96 | 1016.1 |
| 20260510140009 | 51 | 158 | 0.0 | 4.0 | 0.00 | 0.35 | 0.01 | 97 | 1016.0 |
| 20260510134508 | 51 | 237 | 0.0 | 2.0 | 0.00 | 0.35 | 0.01 | 98 | 1015.9 |
| 20260510133009 | 50 | 264 | 0.0 | 5.0 | 0.00 | 0.35 | 0.01 | 98 | 1015.8 |
| 20260510131504 | 50 | 180 | 0.0 | 3.0 | 0.00 | 0.35 | 0.01 | 98 | 1015.7 |
| 20260510130001 | 49 | 163 | 1.0 | 4.0 | 0.00 | 0.35 | 0.01 | 98 | 1015.6 |
| 20260510124601 | 49 | 309 | 0.0 | 2.0 | 0.00 | 0.35 | 0.01 | 98 | 1016.0 |
| 20260510123110 | 49 | 126 | 0.0 | 1.0 | 0.00 | 0.35 | 0.01 | 98 | 1016.2 |
| 20260510121558 | 48 | 130 | 0.0 | 2.0 | 0.01 | 0.35 | 0.01 | 98 | 1015.7 |
| 20260510120055 | 48 | 122 | 0.0 | 1.0 | 0.01 | 0.35 | 0.01 | 98 | 1015.6 |
| 20260510114553 | 48 | 169 | 0.0 | 4.0 | 0.01 | 0.35 | 0.01 | 98 | 1015.5 |
| 20260510113053 | 48 | 197 | 2.0 | 3.0 | 0.01 | 0.35 | 0.01 | 98 | 1015.3 |
| 20260510111553 | 47 | 134 | 0.0 | 5.0 | 0.00 | 0.34 | 0.00 | 98 | 1015.4 |
| 20260510110039 | 47 | 155 | 0.0 | 2.0 | 0.00 | 0.34 | 0.00 | 98 | 1015.1 |
| 20260510104533 | 47 | 120 | 0.0 | 2.0 | 0.00 | 0.34 | 0.00 | 98 | 1014.8 |
| 20260510103032 | 47 | 163 | 0.0 | 1.0 | 0.00 | 0.34 | 0.00 | 98 | 1014.8 |
| 20260510101531 | 46 | 141 | 0.0 | 2.0 | 0.00 | 0.34 | 0.00 | 98 | 1014.5 |
| 20260510100029 | 46 | 137 | 0.0 | 1.0 | 0.00 | 0.34 | 0.00 | 98 | 1014.6 |
| 20260510094529 | 46 | 138 | 0.0 | 1.0 | 0.00 | 0.34 | 0.00 | 98 | 1014.6 |
| 20260510093028 | 46 | 137 | 0.0 | 0.0 | 0.00 | 0.34 | 0.00 | 98 | 1014.6 |
| 20260510091527 | 46 | 138 | 0.0 | 0.0 | 0.00 | 0.34 | 0.00 | 98 | 1014.8 |
| 20260510090026 | 46 | 137 | 0.0 | 1.0 | 0.00 | 0.34 | 0.00 | 98 | 1014.6 |
| 20260510084525 | 46 | 137 | 0.0 | 0.0 | 0.00 | 0.34 | 0.00 | 98 | 1014.7 |
| 20260510083025 | 46 | 138 | 0.0 | 1.0 | 0.00 | 0.34 | 0.00 | 98 | 1014.8 |
| 20260510081524 | 46 | 137 | 0.0 | 0.0 | 0.00 | 0.34 | 0.00 | 98 | 1015.0 |
| 20260510080027 | 46 | 137 | 0.0 | 0.0 | 0.00 | 0.34 | 0.00 | 98 | 1014.9 |
| 20260510074523 | 46 | 137 | 0.0 | 0.0 | 0.00 | 0.34 | 0.00 | 98 | 1014.8 |
| 20260510073030 | 45 | 137 | 0.0 | 1.0 | 0.00 | 0.34 | 0.00 | 98 | 1014.8 |
| 20260510071523 | 45 | 137 | 0.0 | 1.0 | 0.00 | 0.34 | 0.00 | 98 | 1014.9 |
| 20260510070018 | 45 | 142 | 0.0 | 1.0 | 0.00 | 0.34 | 0.00 | 98 | 1015.1 |
| 20260510064615 | 45 | 142 | 0.0 | 1.0 | 0.00 | 0.34 | 0.00 | 98 | 1015.2 |
| 20260510063014 | 45 | 142 | 0.0 | 1.0 | 0.00 | 0.34 | 0.00 | 98 | 1015.5 |
| 20260510061512 | 45 | 161 | 0.0 | 1.0 | 0.00 | 0.34 | 0.00 | 98 | 1015.6 |
| 20260510060018 | 44 | 148 | 0.0 | 1.0 | 0.00 | 0.34 | 0.00 | 98 | 1015.7 |
| 20260510054511 | 44 | 165 | 0.0 | 0.0 | 0.00 | 0.34 | 0.00 | 97 | 1015.6 |
| 20260510053012 | 44 | 165 | 0.0 | 0.0 | 0.00 | 0.34 | 0.00 | 97 | 1015.6 |
| 20260510051507 | 43 | 165 | 0.0 | 0.0 | 0.00 | 0.34 | 0.00 | 97 | 1015.7 |
| 20260510050005 | 43 | 165 | 0.0 | 0.0 | 0.00 | 0.34 | 0.00 | 97 | 1015.7 |
| 20260510044507 | 43 | 165 | 0.0 | 1.0 | 0.00 | 0.34 | 0.00 | 97 | 1015.8 |
| 20260510043004 | 43 | 109 | 0.0 | 1.0 | 0.01 | 0.34 | 0.00 | 97 | 1015.8 |
| 20260510041504 | 43 | 156 | 0.0 | 2.0 | 0.01 | 0.34 | 0.00 | 97 | 1016.0 |
| 20260510040003 | 43 | 141 | 0.0 | 1.0 | 0.01 | 0.34 | 0.00 | 97 | 1016.1 |
| 20260510034614 | 43 | 141 | 0.0 | 1.0 | 0.03 | 0.34 | 0.34 | 97 | 1016.0 |
| 20260510033110 | 43 | 141 | 0.0 | 1.0 | 0.02 | 0.33 | 0.33 | 97 | 1016.2 |
| 20260510031602 | 43 | 141 | 0.0 | 1.0 | 0.02 | 0.33 | 0.33 | 97 | 1016.4 |
| 20260510030058 | 43 | 141 | 0.0 | 1.0 | 0.02 | 0.33 | 0.33 | 97 | 1016.6 |
| 20260510024558 | 43 | 141 | 0.0 | 0.0 | 0.00 | 0.31 | 0.31 | 97 | 1016.8 |
| 20260510023058 | 43 | 141 | 0.0 | 0.0 | 0.00 | 0.31 | 0.31 | 97 | 1016.8 |
| 20260510021601 | 43 | 141 | 0.0 | 1.0 | 0.00 | 0.31 | 0.31 | 97 | 1016.7 |
| 20260510020057 | 43 | 141 | 0.0 | 1.0 | 0.00 | 0.31 | 0.31 | 97 | 1016.9 |
| 20260510014606 | 43 | 141 | 0.0 | 1.0 | 0.00 | 0.31 | 0.31 | 97 | 1017.0 |
| 20260510013054 | 43 | 141 | 0.0 | 1.0 | 0.00 | 0.31 | 0.31 | 97 | 1016.7 |
| 20260510011554 | 43 | 90 | 0.0 | 4.0 | 0.01 | 0.31 | 0.31 | 97 | 1016.7 |
| 20260510010053 | 43 | 68 | 0.0 | 1.0 | 0.01 | 0.31 | 0.31 | 96 | 1016.5 |
| 20260510004553 | 43 | 124 | 0.0 | 4.0 | 0.02 | 0.31 | 0.31 | 96 | 1016.7 |
| 20260510003054 | 43 | 98 | 0.0 | 1.0 | 0.02 | 0.31 | 0.31 | 96 | 1016.8 |
| 20260510001554 | 43 | 63 | 0.0 | 1.0 | 0.02 | 0.30 | 0.30 | 96 | 1016.9 |
| 20260510000052 | 43 | 57 | 0.0 | 2.0 | 0.02 | 0.30 | 0.30 | 96 | 1017.0 |
| 20260509234551 | 43 | 57 | 0.0 | 1.0 | 0.02 | 0.28 | 0.28 | 96 | 1017.0 |
| 20260509233053 | 43 | 82 | 0.0 | 2.0 | 0.03 | 0.28 | 0.28 | 96 | 1017.0 |
| 20260509231550 | 43 | 63 | 0.0 | 2.0 | 0.03 | 0.28 | 0.28 | 96 | 1016.9 |
| 20260509230049 | 43 | 56 | 0.0 | 2.0 | 0.05 | 0.28 | 0.28 | 96 | 1016.9 |
| 20260509224557 | 43 | 38 | 0.0 | 2.0 | 0.05 | 0.27 | 0.27 | 96 | 1017.0 |
| 20260509223050 | 43 | 188 | 0.0 | 3.0 | 0.05 | 0.26 | 0.26 | 95 | 1017.2 |
| 20260509221602 | 43 | 109 | 0.0 | 3.0 | 0.05 | 0.25 | 0.25 | 95 | 1017.2 |
| 20260509220047 | 44 | 92 | 1.0 | 5.0 | 0.04 | 0.23 | 0.23 | 95 | 1017.4 |
| 20260509214550 | 44 | 107 | 0.0 | 3.0 | 0.03 | 0.22 | 0.22 | 95 | 1017.3 |
| 20260509213047 | 44 | 109 | 0.0 | 5.0 | 0.03 | 0.21 | 0.21 | 94 | 1017.3 |
| 20260509211547 | 44 | 114 | 0.0 | 4.0 | 0.04 | 0.20 | 0.20 | 94 | 1017.1 |
| 20260509210051 | 44 | 129 | 1.0 | 6.0 | 0.05 | 0.19 | 0.19 | 94 | 1017.2 |
| 20260509204550 | 44 | 113 | 0.0 | 4.0 | 0.08 | 0.19 | 0.19 | 94 | 1017.1 |
| 20260509203044 | 44 | 151 | 2.0 | 5.0 | 0.09 | 0.18 | 0.18 | 93 | 1017.6 |
| 20260509201553 | 44 | 108 | 1.0 | 2.0 | 0.09 | 0.16 | 0.16 | 93 | 1017.9 |
| 20260509200056 | 44 | 147 | 1.0 | 4.0 | 0.08 | 0.14 | 0.14 | 92 | 1017.9 |
| 20260509194543 | 45 | 134 | 0.0 | 6.0 | 0.06 | 0.11 | 0.11 | 92 | 1018.1 |
| 20260509193043 | 45 | 120 | 1.0 | 6.0 | 0.06 | 0.09 | 0.09 | 90 | 1018.0 |
| 20260509191542 | 45 | 157 | 2.0 | 5.0 | 0.05 | 0.07 | 0.07 | 89 | 1018.1 |
| 20260509190050 | 46 | 139 | 1.0 | 5.0 | 0.05 | 0.06 | 0.06 | 88 | 1018.5 |
| 20260509184541 | 46 | 150 | 1.0 | 5.0 | 0.05 | 0.05 | 0.05 | 84 | 1018.3 |
| 20260509183041 | 46 | 180 | 0.0 | 2.0 | 0.03 | 0.03 | 0.03 | 86 | 1018.3 |
| 20260509181540 | 46 | 164 | 1.0 | 3.0 | 0.02 | 0.02 | 0.02 | 82 | 1018.5 |
| 20260509180039 | 47 | 114 | 0.0 | 7.0 | 0.01 | 0.01 | 0.01 | 79 | 1018.3 |
| 20260509174537 | 49 | 125 | 1.0 | 7.0 | 0.00 | 0.00 | 0.00 | 71 | 1018.2 |
| 20260509173036 | 50 | 123 | 3.0 | 6.0 | 0.00 | 0.00 | 0.00 | 62 | 1018.1 |
| 20260509171541 | 51 | 233 | 1.0 | 11.0 | 0.00 | 0.00 | 0.00 | 59 | 1018.1 |
| 20260509170036 | 53 | 103 | 4.0 | 12.0 | 0.00 | 0.00 | 0.00 | 52 | 1018.0 |
| 20260509164544 | 54 | 251 | 3.0 | 9.0 | 0.00 | 0.00 | 0.00 | 46 | 1017.8 |
| 20260509163037 | 54 | 200 | 1.0 | 9.0 | 0.00 | 0.00 | 0.00 | 44 | 1017.8 |
| 20260509161536 | 55 | 222 | 4.0 | 10.0 | 0.00 | 0.00 | 0.00 | 41 | 1017.8 |
| 20260509160033 | 56 | 199 | 3.0 | 9.0 | 0.00 | 0.00 | 0.00 | 40 | 1017.6 |
| 20260509154532 | 56 | 120 | 2.0 | 9.0 | 0.00 | 0.00 | 0.00 | 40 | 1017.7 |
| 20260509153032 | 57 | 117 | 4.0 | 9.0 | 0.00 | 0.00 | 0.00 | 40 | 1017.6 |